Year,Month,Day,Hour,Minute,Value (Times are PST for windspeed in km/hr)
2008,12,29,00,00,0.00
2008,12,29,00,01,0.10
2008,12,29,00,02,0.20
2008,12,29,00,03,0.00
2008,12,29,00,04,0.00
2008,12,29,00,05,0.00
2008,12,29,00,06,0.00
2008,12,29,00,07,0.00
2008,12,29,00,08,0.00
2008,12,29,00,09,0.00
2008,12,29,00,10,0.00
2008,12,29,00,11,0.00
2008,12,29,00,12,0.00
2008,12,29,00,13,0.00
2008,12,29,00,14,0.00
2008,12,29,00,15,0.00
2008,12,29,00,16,0.00
2008,12,29,00,17,0.20
2008,12,29,00,18,0.80
2008,12,29,00,19,0.30
2008,12,29,00,20,0.10
2008,12,29,00,21,0.30
2008,12,29,00,22,0.20
2008,12,29,00,23,0.50
2008,12,29,00,24,0.30
2008,12,29,00,25,0.60
2008,12,29,00,26,0.00
2008,12,29,00,27,0.00
2008,12,29,00,28,0.00
2008,12,29,00,29,0.00
2008,12,29,00,30,0.00
2008,12,29,00,31,0.00
2008,12,29,00,32,0.00
2008,12,29,00,33,0.00
2008,12,29,00,34,0.00
2008,12,29,00,35,0.00
2008,12,29,00,36,0.00
2008,12,29,00,37,0.00
2008,12,29,00,38,0.00
2008,12,29,00,39,0.00
2008,12,29,00,40,0.00
2008,12,29,00,41,0.00
2008,12,29,00,42,0.00
2008,12,29,00,43,0.40
2008,12,29,00,44,1.10
2008,12,29,00,45,0.00
2008,12,29,00,46,0.00
2008,12,29,00,47,0.00
2008,12,29,00,48,0.50
2008,12,29,00,49,0.00
2008,12,29,00,50,0.00
2008,12,29,00,51,0.00
2008,12,29,00,52,0.00
2008,12,29,00,53,0.00
2008,12,29,00,54,0.00
2008,12,29,00,55,0.00
2008,12,29,00,56,0.00
2008,12,29,00,57,0.00
2008,12,29,00,58,0.00
2008,12,29,00,59,0.00
2008,12,29,01,00,0.00
2008,12,29,01,01,0.00
2008,12,29,01,02,0.00
2008,12,29,01,03,0.00
2008,12,29,01,04,0.00
2008,12,29,01,05,0.00
2008,12,29,01,06,0.00
2008,12,29,01,07,0.00
2008,12,29,01,08,0.00
2008,12,29,01,09,0.00
2008,12,29,01,10,0.00
2008,12,29,01,11,0.00
2008,12,29,01,12,0.00
2008,12,29,01,13,0.00
2008,12,29,01,14,0.10
2008,12,29,01,15,0.00
2008,12,29,01,16,0.00
2008,12,29,01,17,0.00
2008,12,29,01,18,0.00
2008,12,29,01,19,0.20
2008,12,29,01,20,0.50
2008,12,29,01,21,0.00
2008,12,29,01,22,0.00
2008,12,29,01,23,0.00
2008,12,29,01,24,0.00
2008,12,29,01,25,0.00
2008,12,29,01,26,0.10
2008,12,29,01,27,0.90
2008,12,29,01,28,0.00
2008,12,29,01,29,0.00
2008,12,29,01,30,0.00
2008,12,29,01,31,0.00
2008,12,29,01,32,0.00
2008,12,29,01,33,0.10
2008,12,29,01,34,0.00
2008,12,29,01,35,0.00
2008,12,29,01,36,0.00
2008,12,29,01,37,0.00
2008,12,29,01,38,0.00
2008,12,29,01,39,0.00
2008,12,29,01,40,0.00
2008,12,29,01,41,0.00
2008,12,29,01,42,0.00
2008,12,29,01,43,0.00
2008,12,29,01,44,0.00
2008,12,29,01,45,0.00
2008,12,29,01,46,0.00
2008,12,29,01,47,0.00
2008,12,29,01,48,0.00
2008,12,29,01,49,0.00
2008,12,29,01,50,0.00
2008,12,29,01,51,0.00
2008,12,29,01,52,0.00
2008,12,29,01,53,0.00
2008,12,29,01,54,0.00
2008,12,29,01,55,0.00
2008,12,29,01,56,0.10
2008,12,29,01,57,0.00
2008,12,29,01,58,0.10
2008,12,29,01,59,0.30
2008,12,29,02,00,0.00
2008,12,29,02,01,0.00
2008,12,29,02,02,0.00
2008,12,29,02,03,0.00
2008,12,29,02,04,0.00
2008,12,29,02,05,0.00
2008,12,29,02,06,0.00
2008,12,29,02,07,0.00
2008,12,29,02,08,0.00
2008,12,29,02,09,0.00
2008,12,29,02,10,0.00
2008,12,29,02,11,0.00
2008,12,29,02,12,0.00
2008,12,29,02,13,0.70
2008,12,29,02,14,0.20
2008,12,29,02,15,0.60
2008,12,29,02,16,0.70
2008,12,29,02,17,0.10
2008,12,29,02,18,0.00
2008,12,29,02,19,0.20
2008,12,29,02,20,0.30
2008,12,29,02,21,2.00
2008,12,29,02,22,0.40
2008,12,29,02,23,0.00
2008,12,29,02,24,0.00
2008,12,29,02,25,0.20
2008,12,29,02,26,0.10
2008,12,29,02,27,0.20
2008,12,29,02,28,0.00
2008,12,29,02,29,0.00
2008,12,29,02,30,0.20
2008,12,29,02,31,0.00
2008,12,29,02,32,0.00
2008,12,29,02,33,0.00
2008,12,29,02,34,0.20
2008,12,29,02,35,0.60
2008,12,29,02,36,0.20
2008,12,29,02,37,0.10
2008,12,29,02,38,0.00
2008,12,29,02,39,0.10
2008,12,29,02,40,1.30
2008,12,29,02,41,0.40
2008,12,29,02,42,0.00
2008,12,29,02,43,0.00
2008,12,29,02,44,0.00
2008,12,29,02,45,0.10
2008,12,29,02,46,0.00
2008,12,29,02,47,0.00
2008,12,29,02,48,0.10
2008,12,29,02,49,0.00
2008,12,29,02,50,0.00
2008,12,29,02,51,1.10
2008,12,29,02,52,0.10
2008,12,29,02,53,0.10
2008,12,29,02,54,0.30
2008,12,29,02,55,0.60
2008,12,29,02,56,0.10
2008,12,29,02,57,2.20
2008,12,29,02,58,2.00
2008,12,29,02,59,0.10
2008,12,29,03,00,1.30
2008,12,29,03,01,3.00
2008,12,29,03,02,2.10
2008,12,29,03,03,0.10
2008,12,29,03,04,0.20
2008,12,29,03,05,0.00
2008,12,29,03,06,0.90
2008,12,29,03,07,0.70
2008,12,29,03,08,0.00
2008,12,29,03,09,0.30
2008,12,29,03,10,0.00
2008,12,29,03,11,0.00
2008,12,29,03,12,0.00
2008,12,29,03,13,0.00
2008,12,29,03,14,0.00
2008,12,29,03,15,0.00
2008,12,29,03,16,0.60
2008,12,29,03,17,1.20
2008,12,29,03,18,0.00
2008,12,29,03,19,0.00
2008,12,29,03,20,0.00
2008,12,29,03,21,0.10
2008,12,29,03,22,0.80
2008,12,29,03,23,0.60
2008,12,29,03,24,0.10
2008,12,29,03,25,0.00
2008,12,29,03,26,0.00
2008,12,29,03,27,0.00
2008,12,29,03,28,0.00
2008,12,29,03,29,0.00
2008,12,29,03,30,0.00
2008,12,29,03,31,0.00
2008,12,29,03,32,0.00
2008,12,29,03,33,0.00
2008,12,29,03,34,0.00
2008,12,29,03,35,0.40
2008,12,29,03,36,0.00
2008,12,29,03,37,0.00
2008,12,29,03,38,0.00
2008,12,29,03,39,0.00
2008,12,29,03,40,0.00
2008,12,29,03,41,0.00
2008,12,29,03,42,0.00
2008,12,29,03,43,0.00
2008,12,29,03,44,0.00
2008,12,29,03,45,0.00
2008,12,29,03,46,0.00
2008,12,29,03,47,0.20
2008,12,29,03,48,0.00
2008,12,29,03,49,0.00
2008,12,29,03,50,0.00
2008,12,29,03,51,0.00
2008,12,29,03,52,0.00
2008,12,29,03,53,0.00
2008,12,29,03,54,0.00
2008,12,29,03,55,0.20
2008,12,29,03,56,0.20
2008,12,29,03,57,0.10
2008,12,29,03,58,0.00
2008,12,29,03,59,0.00
2008,12,29,04,00,0.20
2008,12,29,04,01,3.70
2008,12,29,04,02,0.70
2008,12,29,04,03,0.40
2008,12,29,04,04,0.00
2008,12,29,04,05,0.70
2008,12,29,04,06,0.10
2008,12,29,04,07,0.20
2008,12,29,04,08,0.20
2008,12,29,04,09,0.00
2008,12,29,04,10,0.00
2008,12,29,04,11,0.10
2008,12,29,04,12,0.00
2008,12,29,04,13,0.00
2008,12,29,04,14,0.00
2008,12,29,04,15,0.10
2008,12,29,04,16,2.90
2008,12,29,04,17,1.80
2008,12,29,04,18,1.50
2008,12,29,04,19,2.80
2008,12,29,04,20,1.60
2008,12,29,04,21,5.00
2008,12,29,04,22,2.90
2008,12,29,04,23,5.20
2008,12,29,04,24,0.90
2008,12,29,04,25,0.00
2008,12,29,04,26,1.00
2008,12,29,04,27,2.80
2008,12,29,04,28,0.20
2008,12,29,04,29,0.30
2008,12,29,04,30,0.10
2008,12,29,04,31,0.00
2008,12,29,04,32,0.00
2008,12,29,04,33,0.00
2008,12,29,04,34,0.00
2008,12,29,04,35,0.00
2008,12,29,04,36,0.00
2008,12,29,04,37,0.00
2008,12,29,04,38,0.00
2008,12,29,04,39,0.20
2008,12,29,04,40,0.00
2008,12,29,04,41,0.00
2008,12,29,04,42,0.00
2008,12,29,04,43,0.00
2008,12,29,04,44,0.00
2008,12,29,04,45,0.20
2008,12,29,04,46,1.10
2008,12,29,04,47,3.10
2008,12,29,04,48,1.10
2008,12,29,04,49,1.30
2008,12,29,04,50,1.30
2008,12,29,04,51,1.20
2008,12,29,04,52,0.60
2008,12,29,04,53,0.10
2008,12,29,04,54,0.10
2008,12,29,04,55,1.00
2008,12,29,04,56,0.50
2008,12,29,04,57,0.40
2008,12,29,04,58,0.20
2008,12,29,04,59,0.00
2008,12,29,05,00,0.00
2008,12,29,05,01,0.00
2008,12,29,05,02,0.00
2008,12,29,05,03,0.00
2008,12,29,05,04,0.00
2008,12,29,05,05,0.50
2008,12,29,05,06,0.60
2008,12,29,05,07,0.10
2008,12,29,05,08,0.00
2008,12,29,05,09,0.00
2008,12,29,05,10,0.00
2008,12,29,05,11,0.10
2008,12,29,05,12,0.00
2008,12,29,05,13,0.10
2008,12,29,05,14,0.00
2008,12,29,05,15,0.50
2008,12,29,05,16,0.00
2008,12,29,05,17,0.00
2008,12,29,05,18,0.00
2008,12,29,05,19,0.00
2008,12,29,05,20,0.00
2008,12,29,05,21,0.00
2008,12,29,05,22,0.00
2008,12,29,05,23,0.00
2008,12,29,05,24,0.00
2008,12,29,05,25,0.00
2008,12,29,05,26,0.00
2008,12,29,05,27,0.00
2008,12,29,05,28,0.00
2008,12,29,05,29,0.00
2008,12,29,05,30,0.00
2008,12,29,05,31,0.00
2008,12,29,05,32,0.00
2008,12,29,05,33,0.00
2008,12,29,05,34,0.00
2008,12,29,05,35,0.00
2008,12,29,05,36,0.00
2008,12,29,05,37,0.00
2008,12,29,05,38,0.00
2008,12,29,05,39,0.00
2008,12,29,05,40,0.00
2008,12,29,05,41,0.00
2008,12,29,05,42,0.00
2008,12,29,05,43,0.00
2008,12,29,05,44,0.00
2008,12,29,05,45,0.00
2008,12,29,05,46,0.00
2008,12,29,05,47,0.00
2008,12,29,05,48,0.00
2008,12,29,05,49,0.00
2008,12,29,05,50,0.00
2008,12,29,05,51,0.00
2008,12,29,05,52,0.00
2008,12,29,05,53,0.00
2008,12,29,05,54,0.10
2008,12,29,05,55,0.00
2008,12,29,05,56,0.00
2008,12,29,05,57,0.00
2008,12,29,05,58,0.00
2008,12,29,05,59,0.00
2008,12,29,06,00,0.00
2008,12,29,06,01,0.00
2008,12,29,06,02,0.00
2008,12,29,06,03,0.00
2008,12,29,06,04,0.00
2008,12,29,06,05,0.00
2008,12,29,06,06,0.00
2008,12,29,06,07,0.00
2008,12,29,06,08,0.00
2008,12,29,06,09,0.00
2008,12,29,06,10,0.30
2008,12,29,06,11,0.40
2008,12,29,06,12,0.00
2008,12,29,06,13,0.00
2008,12,29,06,14,0.10
2008,12,29,06,15,1.00
2008,12,29,06,16,1.30
2008,12,29,06,17,2.30
2008,12,29,06,18,0.80
2008,12,29,06,19,1.00
2008,12,29,06,20,1.30
2008,12,29,06,21,1.30
2008,12,29,06,22,1.80
2008,12,29,06,23,1.40
2008,12,29,06,24,2.50
2008,12,29,06,25,1.00
2008,12,29,06,26,3.50
2008,12,29,06,27,3.60
2008,12,29,06,28,2.90
2008,12,29,06,29,4.10
2008,12,29,06,30,1.90
2008,12,29,06,31,0.10
2008,12,29,06,32,0.00
2008,12,29,06,33,1.30
2008,12,29,06,34,0.70
2008,12,29,06,35,3.40
2008,12,29,06,36,0.70
2008,12,29,06,37,0.00
2008,12,29,06,38,0.50
2008,12,29,06,39,2.10
2008,12,29,06,40,0.10
2008,12,29,06,41,0.90
2008,12,29,06,42,0.50
2008,12,29,06,43,0.90
2008,12,29,06,44,0.20
2008,12,29,06,45,1.50
2008,12,29,06,46,1.60
2008,12,29,06,47,1.10
2008,12,29,06,48,0.10
2008,12,29,06,49,0.20
2008,12,29,06,50,1.80
2008,12,29,06,51,1.70
2008,12,29,06,52,1.50
2008,12,29,06,53,0.40
2008,12,29,06,54,2.40
2008,12,29,06,55,1.30
2008,12,29,06,56,1.00
2008,12,29,06,57,2.10
2008,12,29,06,58,1.50
2008,12,29,06,59,3.30
2008,12,29,07,00,1.50
2008,12,29,07,01,3.00
2008,12,29,07,02,1.30
2008,12,29,07,03,1.60
2008,12,29,07,04,3.70
2008,12,29,07,05,2.60
2008,12,29,07,06,1.90
2008,12,29,07,07,3.10
2008,12,29,07,08,2.30
2008,12,29,07,09,3.30
2008,12,29,07,10,4.10
2008,12,29,07,11,1.30
2008,12,29,07,12,0.70
2008,12,29,07,13,3.00
2008,12,29,07,14,3.60
2008,12,29,07,15,2.70
2008,12,29,07,16,4.60
2008,12,29,07,17,5.80
2008,12,29,07,18,4.50
2008,12,29,07,19,5.50
2008,12,29,07,20,3.60
2008,12,29,07,21,2.50
2008,12,29,07,22,3.70
2008,12,29,07,23,4.60
2008,12,29,07,24,3.60
2008,12,29,07,25,4.90
2008,12,29,07,26,3.10
2008,12,29,07,27,2.10
2008,12,29,07,28,3.60
2008,12,29,07,29,2.50
2008,12,29,07,30,1.20
2008,12,29,07,31,1.30
2008,12,29,07,32,0.70
2008,12,29,07,33,1.30
2008,12,29,07,34,4.00
2008,12,29,07,35,1.50
2008,12,29,07,36,0.80
2008,12,29,07,37,0.10
2008,12,29,07,38,0.20
2008,12,29,07,39,0.40
2008,12,29,07,40,0.50
2008,12,29,07,41,0.80
2008,12,29,07,42,1.20
2008,12,29,07,43,1.40
2008,12,29,07,44,3.10
2008,12,29,07,45,2.30
2008,12,29,07,46,0.00
2008,12,29,07,47,1.20
2008,12,29,07,48,0.30
2008,12,29,07,49,0.30
2008,12,29,07,50,0.20
2008,12,29,07,51,0.30
2008,12,29,07,52,0.40
2008,12,29,07,53,0.20
2008,12,29,07,54,0.30
2008,12,29,07,55,0.80
2008,12,29,07,56,0.00
2008,12,29,07,57,0.10
2008,12,29,07,58,0.30
2008,12,29,07,59,0.00
2008,12,29,08,00,1.30
2008,12,29,08,01,0.40
2008,12,29,08,02,1.10
2008,12,29,08,03,0.60
2008,12,29,08,04,0.00
2008,12,29,08,05,0.70
2008,12,29,08,06,0.00
2008,12,29,08,07,0.00
2008,12,29,08,08,0.00
2008,12,29,08,09,0.40
2008,12,29,08,10,2.10
2008,12,29,08,11,2.60
2008,12,29,08,12,1.50
2008,12,29,08,13,0.20
2008,12,29,08,14,0.10
2008,12,29,08,15,1.10
2008,12,29,08,16,1.70
2008,12,29,08,17,1.30
2008,12,29,08,18,0.20
2008,12,29,08,19,0.00
2008,12,29,08,20,0.00
2008,12,29,08,21,0.00
2008,12,29,08,22,0.30
2008,12,29,08,23,0.00
2008,12,29,08,24,0.20
2008,12,29,08,25,0.60
2008,12,29,08,26,0.40
2008,12,29,08,27,0.20
2008,12,29,08,28,0.00
2008,12,29,08,29,1.10
2008,12,29,08,30,2.10
2008,12,29,08,31,1.60
2008,12,29,08,32,1.10
2008,12,29,08,33,0.30
2008,12,29,08,34,0.00
2008,12,29,08,35,0.00
2008,12,29,08,36,0.00
2008,12,29,08,37,0.00
2008,12,29,08,38,0.00
2008,12,29,08,39,0.00
2008,12,29,08,40,0.00
2008,12,29,08,41,0.00
2008,12,29,08,42,0.00
2008,12,29,08,43,0.50
2008,12,29,08,44,0.80
2008,12,29,08,45,0.40
2008,12,29,08,46,1.30
2008,12,29,08,47,0.50
2008,12,29,08,48,0.10
2008,12,29,08,49,0.70
2008,12,29,08,50,0.50
2008,12,29,08,51,0.90
2008,12,29,08,52,0.00
2008,12,29,08,53,0.00
2008,12,29,08,54,0.00
2008,12,29,08,55,0.00
2008,12,29,08,56,0.00
2008,12,29,08,57,0.10
2008,12,29,08,58,0.30
2008,12,29,08,59,0.60
2008,12,29,09,00,0.00
2008,12,29,09,01,0.00
2008,12,29,09,02,0.00
2008,12,29,09,03,0.00
2008,12,29,09,04,0.00
2008,12,29,09,05,0.00
2008,12,29,09,06,0.00
2008,12,29,09,07,0.00
2008,12,29,09,08,0.40
2008,12,29,09,09,0.00
2008,12,29,09,10,0.10
2008,12,29,09,11,0.00
2008,12,29,09,12,0.40
2008,12,29,09,13,0.00
2008,12,29,09,14,0.00
2008,12,29,09,15,0.10
2008,12,29,09,16,0.40
2008,12,29,09,17,2.20
2008,12,29,09,18,2.30
2008,12,29,09,19,2.00
2008,12,29,09,20,0.30
2008,12,29,09,21,0.30
2008,12,29,09,22,1.50
2008,12,29,09,23,0.40
2008,12,29,09,24,3.80
2008,12,29,09,25,1.80
2008,12,29,09,26,1.90
2008,12,29,09,27,0.20
2008,12,29,09,28,0.10
2008,12,29,09,29,0.00
2008,12,29,09,30,0.00
2008,12,29,09,31,0.00
2008,12,29,09,32,0.00
2008,12,29,09,33,0.30
2008,12,29,09,34,0.00
2008,12,29,09,35,0.00
2008,12,29,09,36,0.00
2008,12,29,09,37,0.00
2008,12,29,09,38,0.00
2008,12,29,09,39,0.00
2008,12,29,09,40,0.00
2008,12,29,09,41,0.00
2008,12,29,09,42,0.00
2008,12,29,09,43,0.00
2008,12,29,09,44,0.00
2008,12,29,09,45,0.00
2008,12,29,09,46,0.00
2008,12,29,09,47,0.00
2008,12,29,09,48,0.30
2008,12,29,09,49,0.00
2008,12,29,09,50,0.00
2008,12,29,09,51,0.00
2008,12,29,09,52,0.40
2008,12,29,09,53,0.40
2008,12,29,09,54,0.00
2008,12,29,09,55,0.00
2008,12,29,09,56,0.00
2008,12,29,09,57,0.00
2008,12,29,09,58,0.00
2008,12,29,09,59,0.00
2008,12,29,10,00,0.40
2008,12,29,10,01,1.40
2008,12,29,10,02,1.20
2008,12,29,10,03,0.50
2008,12,29,10,04,0.00
2008,12,29,10,05,0.00
2008,12,29,10,06,0.00
2008,12,29,10,07,0.00
2008,12,29,10,08,0.00
2008,12,29,10,09,0.20
2008,12,29,10,10,0.10
2008,12,29,10,11,0.00
2008,12,29,10,12,0.00
2008,12,29,10,13,0.00
2008,12,29,10,14,0.10
2008,12,29,10,15,0.00
2008,12,29,10,16,0.00
2008,12,29,10,17,0.30
2008,12,29,10,18,0.00
2008,12,29,10,19,0.00
2008,12,29,10,20,0.00
2008,12,29,10,21,0.00
2008,12,29,10,22,0.00
2008,12,29,10,23,0.00
2008,12,29,10,24,0.00
2008,12,29,10,25,0.00
2008,12,29,10,26,0.00
2008,12,29,10,27,0.00
2008,12,29,10,28,0.00
2008,12,29,10,29,0.00
2008,12,29,10,30,0.00
2008,12,29,10,31,0.00
2008,12,29,10,32,0.40
2008,12,29,10,33,0.20
2008,12,29,10,34,0.50
2008,12,29,10,35,0.00
2008,12,29,10,36,0.00
2008,12,29,10,37,0.00
2008,12,29,10,38,0.00
2008,12,29,10,39,0.00
2008,12,29,10,40,0.00
2008,12,29,10,41,0.00
2008,12,29,10,42,0.00
2008,12,29,10,43,0.00
2008,12,29,10,44,0.00
2008,12,29,10,45,0.00
2008,12,29,10,46,0.00
2008,12,29,10,47,0.70
2008,12,29,10,48,2.20
2008,12,29,10,49,2.40
2008,12,29,10,50,1.70
2008,12,29,10,51,1.80
2008,12,29,10,52,2.80
2008,12,29,10,53,0.50
2008,12,29,10,54,0.00
2008,12,29,10,55,0.20
2008,12,29,10,56,1.10
2008,12,29,10,57,1.70
2008,12,29,10,58,1.80
2008,12,29,10,59,1.20
2008,12,29,11,00,0.20
2008,12,29,11,01,0.00
2008,12,29,11,02,0.00
2008,12,29,11,03,0.20
2008,12,29,11,04,0.40
2008,12,29,11,05,1.30
2008,12,29,11,06,2.10
2008,12,29,11,07,2.60
2008,12,29,11,08,2.00
2008,12,29,11,09,0.50
2008,12,29,11,10,1.00
2008,12,29,11,11,2.50
2008,12,29,11,12,2.60
2008,12,29,11,13,0.80
2008,12,29,11,14,2.00
2008,12,29,11,15,2.80
2008,12,29,11,16,4.80
2008,12,29,11,17,3.10
2008,12,29,11,18,1.80
2008,12,29,11,19,1.20
2008,12,29,11,20,1.30
2008,12,29,11,21,2.00
2008,12,29,11,22,3.40
2008,12,29,11,23,5.60
2008,12,29,11,24,8.20
2008,12,29,11,25,8.10
2008,12,29,11,26,8.50
2008,12,29,11,27,26.10
2008,12,29,11,28,12.90
2008,12,29,11,29,15.40
2008,12,29,11,30,10.80
2008,12,29,11,31,7.30
2008,12,29,11,32,11.30
2008,12,29,11,33,11.30
2008,12,29,11,34,11.90
2008,12,29,11,35,13.00
2008,12,29,11,36,9.60
2008,12,29,11,37,11.00
2008,12,29,11,38,14.00
2008,12,29,11,39,10.00
2008,12,29,11,40,13.50
2008,12,29,11,41,11.90
2008,12,29,11,42,13.40
2008,12,29,11,43,16.00
2008,12,29,11,44,17.30
2008,12,29,11,45,21.60
2008,12,29,11,46,22.40
2008,12,29,11,47,10.60
2008,12,29,11,48,15.80
2008,12,29,11,49,15.70
2008,12,29,11,50,18.10
2008,12,29,11,51,18.00
2008,12,29,11,52,19.00
2008,12,29,11,53,14.00
2008,12,29,11,54,15.60
2008,12,29,11,55,14.70
2008,12,29,11,56,16.80
2008,12,29,11,57,18.90
2008,12,29,11,58,17.00
2008,12,29,12,02,25.50
2008,12,29,12,03,16.40
2008,12,29,12,04,19.10
2008,12,29,12,05,24.40
2008,12,29,12,06,21.50
2008,12,29,12,07,17.50
2008,12,29,12,08,18.10
2008,12,29,12,09,13.70
2008,12,29,12,10,28.60
2008,12,29,12,11,26.90
2008,12,29,12,12,21.10
2008,12,29,12,13,22.60
2008,12,29,12,14,17.00
2008,12,29,12,15,18.10
2008,12,29,12,16,24.90
2008,12,29,12,17,16.60
2008,12,29,12,18,18.70
2008,12,29,12,19,20.30
2008,12,29,12,20,20.60
2008,12,29,12,21,25.70
2008,12,29,12,22,17.10
2008,12,29,12,23,12.40
2008,12,29,12,24,11.50
2008,12,29,12,25,16.00
2008,12,29,12,26,18.10
2008,12,29,12,27,27.40
2008,12,29,12,28,19.80
2008,12,29,12,29,15.30
2008,12,29,12,30,16.80
2008,12,29,12,31,17.30
2008,12,29,12,32,18.30
2008,12,29,12,33,23.00
2008,12,29,12,34,18.90
2008,12,29,12,35,16.90
2008,12,29,12,36,19.40
2008,12,29,12,37,18.10
2008,12,29,12,38,32.50
2008,12,29,12,39,18.10
2008,12,29,12,40,27.40
2008,12,29,12,41,23.60
2008,12,29,12,42,24.50
2008,12,29,12,43,11.00
2008,12,29,12,44,12.80
2008,12,29,12,45,20.70
2008,12,29,12,46,22.80
2008,12,29,12,47,18.70
2008,12,29,12,48,24.70
2008,12,29,12,49,18.10
2008,12,29,12,50,23.90
2008,12,29,12,51,21.00
2008,12,29,12,52,15.60
2008,12,29,12,53,20.30
2008,12,29,12,54,12.10
2008,12,29,12,55,16.40
2008,12,29,12,56,19.80
2008,12,29,12,57,20.20
2008,12,29,12,58,19.30
2008,12,29,12,59,11.60
2008,12,29,13,00,11.80
2008,12,29,13,01,22.40
2008,12,29,13,02,23.20
2008,12,29,14,05,4.40
2008,12,29,14,06,11.30
2008,12,29,14,07,11.10
2008,12,29,14,08,11.50
2008,12,29,14,09,5.50
2008,12,29,14,10,12.20
2008,12,29,14,11,10.90
2008,12,29,14,12,11.50
2008,12,29,14,13,7.10
2008,12,29,14,14,12.90
2008,12,29,14,15,7.20
2008,12,29,14,16,3.90
2008,12,29,14,17,5.70
2008,12,29,14,18,3.80
2008,12,29,14,19,9.60
2008,12,29,14,20,10.70
2008,12,29,14,21,7.40
2008,12,29,14,22,9.40
2008,12,29,14,23,8.00
2008,12,29,14,24,10.00
2008,12,29,14,25,13.80
2008,12,29,14,26,12.50
2008,12,29,14,27,18.30
2008,12,29,14,28,22.40
2008,12,29,14,29,18.10
2008,12,29,14,30,7.50
2008,12,29,14,31,8.90
2008,12,29,14,32,4.70
2008,12,29,14,33,9.90
2008,12,29,14,34,7.10
2008,12,29,14,35,4.70
2008,12,29,14,36,7.40
2008,12,29,14,37,6.90
2008,12,29,14,38,5.70
2008,12,29,14,39,10.10
2008,12,29,14,40,6.60
2008,12,29,14,41,10.40
2008,12,29,14,42,12.40
2008,12,29,14,43,3.90
2008,12,29,14,44,4.90
2008,12,29,14,45,5.90
2008,12,29,14,46,4.00
2008,12,29,14,47,2.80
2008,12,29,14,48,4.40
2008,12,29,14,49,6.90
2008,12,29,14,50,5.10
2008,12,29,14,51,6.70
2008,12,29,14,52,4.10
2008,12,29,14,53,3.70
2008,12,29,14,54,0.90
2008,12,29,14,55,0.40
2008,12,29,14,56,1.10
2008,12,29,14,57,5.00
2008,12,29,14,58,2.40
2008,12,29,14,59,2.20
2008,12,29,15,00,4.10
2008,12,29,15,01,2.30
2008,12,29,15,02,2.30
2008,12,29,15,03,3.60
2008,12,29,15,04,2.00
2008,12,29,15,05,1.20
2008,12,29,15,06,1.30
2008,12,29,15,07,2.60
2008,12,29,15,08,4.00
2008,12,29,15,09,6.10
2008,12,29,15,10,2.30
2008,12,29,15,11,3.40
2008,12,29,15,12,3.60
2008,12,29,15,13,2.90
2008,12,29,15,14,2.40
2008,12,29,15,15,3.60
2008,12,29,15,16,1.70
2008,12,29,15,17,4.40
2008,12,29,15,18,1.60
2008,12,29,15,19,6.80
2008,12,29,15,20,5.20
2008,12,29,15,21,4.60
2008,12,29,15,22,9.20
2008,12,29,15,23,3.10
2008,12,29,15,24,4.70
2008,12,29,15,25,5.10
2008,12,29,15,26,7.40
2008,12,29,15,27,4.70
2008,12,29,15,28,8.00
2008,12,29,15,29,7.20
2008,12,29,15,30,6.90
2008,12,29,15,31,7.90
2008,12,29,15,32,8.70
2008,12,29,15,33,5.90
2008,12,29,15,34,7.60
2008,12,29,15,35,4.70
2008,12,29,15,36,5.80
2008,12,29,15,37,5.50
2008,12,29,15,38,5.80
2008,12,29,15,39,3.70
2008,12,29,15,40,4.70
2008,12,29,15,41,2.70
2008,12,29,15,42,8.10
2008,12,29,15,43,8.80
2008,12,29,15,44,6.30
2008,12,29,15,45,5.40
2008,12,29,15,46,5.90
2008,12,29,15,47,6.40
2008,12,29,15,48,3.60
2008,12,29,15,49,5.90
2008,12,29,15,50,5.50
2008,12,29,15,51,7.30
2008,12,29,15,52,3.70
2008,12,29,15,53,2.10
2008,12,29,15,54,1.10
2008,12,29,15,55,2.60
2008,12,29,15,56,2.00
2008,12,29,15,57,0.70
2008,12,29,15,58,0.90
2008,12,29,15,59,0.40
2008,12,29,16,00,4.20
2008,12,29,16,01,7.00
2008,12,29,16,02,5.80
2008,12,29,16,03,5.30
2008,12,29,16,04,4.80
2008,12,29,16,05,7.40
2008,12,29,16,06,6.30
2008,12,29,16,07,4.40
2008,12,29,16,08,3.10
2008,12,29,16,09,4.80
2008,12,29,16,10,5.60
2008,12,29,16,11,6.40
2008,12,29,16,12,5.10
2008,12,29,16,13,6.40
2008,12,29,16,14,5.70
2008,12,29,16,15,12.40
2008,12,29,16,16,4.20
2008,12,29,16,17,3.60
2008,12,29,16,18,4.20
2008,12,29,16,19,10.10
2008,12,29,16,20,4.30
2008,12,29,16,21,4.60
2008,12,29,16,22,8.50
2008,12,29,16,23,7.10
2008,12,29,16,24,4.70
2008,12,29,16,25,8.60
2008,12,29,16,26,6.90
2008,12,29,16,27,5.80
2008,12,29,16,28,5.60
2008,12,29,16,29,8.50
2008,12,29,16,30,12.10
2008,12,29,16,31,9.30
2008,12,29,16,32,7.70
2008,12,29,16,33,5.20
2008,12,29,16,34,5.30
2008,12,29,16,35,4.90
2008,12,29,16,36,6.30
2008,12,29,16,37,6.50
2008,12,29,16,38,5.30
2008,12,29,16,39,6.30
2008,12,29,16,40,6.40
2008,12,29,16,41,6.10
2008,12,29,16,42,4.20
2008,12,29,16,43,9.40
2008,12,29,16,44,6.00
2008,12,29,16,45,6.80
2008,12,29,16,46,10.10
2008,12,29,16,47,10.30
2008,12,29,16,48,10.10
2008,12,29,16,49,8.20
2008,12,29,16,50,8.30
2008,12,29,16,51,6.60
2008,12,29,16,52,4.20
2008,12,29,16,53,4.80
2008,12,29,16,54,4.70
2008,12,29,16,55,3.60
2008,12,29,16,56,4.90
2008,12,29,16,57,2.00
2008,12,29,16,58,2.30
2008,12,29,16,59,4.80
2008,12,29,17,00,8.00
2008,12,29,17,01,5.60
2008,12,29,17,02,5.10
2008,12,29,17,03,6.90
2008,12,29,17,04,7.60
2008,12,29,17,05,8.90
2008,12,29,17,06,6.80
2008,12,29,17,07,6.90
2008,12,29,17,08,7.50
2008,12,29,17,09,6.70
2008,12,29,17,10,4.60
2008,12,29,17,11,7.10
2008,12,29,17,12,9.20
2008,12,29,17,13,8.00
2008,12,29,17,14,7.20
2008,12,29,17,15,5.30
2008,12,29,17,16,11.40
2008,12,29,17,17,8.50
2008,12,29,17,18,9.30
2008,12,29,17,19,4.60
2008,12,29,17,20,5.80
2008,12,29,17,21,7.10
2008,12,29,17,22,11.40
2008,12,29,17,23,2.30
2008,12,29,17,24,9.20
2008,12,29,17,25,6.10
2008,12,29,17,26,3.80
2008,12,29,17,27,4.60
2008,12,29,17,28,5.20
2008,12,29,17,29,7.80
2008,12,29,17,30,8.90
2008,12,29,17,31,1.50
2008,12,29,17,32,2.90
2008,12,29,17,33,3.60
2008,12,29,17,34,4.20
2008,12,29,17,35,4.90
2008,12,29,17,36,5.80
2008,12,29,17,37,5.60
2008,12,29,17,38,7.40
2008,12,29,17,39,5.20
2008,12,29,17,40,7.60
2008,12,29,17,41,7.20
2008,12,29,17,42,6.10
2008,12,29,17,43,7.40
2008,12,29,17,44,6.90
2008,12,29,17,45,9.90
2008,12,29,17,46,7.60
2008,12,29,17,47,8.40
2008,12,29,17,48,14.20
2008,12,29,17,49,8.50
2008,12,29,17,50,6.80
2008,12,29,17,51,10.40
2008,12,29,17,52,7.60
2008,12,29,17,53,7.50
2008,12,29,17,54,9.30
2008,12,29,17,55,8.90
2008,12,29,17,56,13.70
2008,12,29,17,57,7.70
2008,12,29,17,58,6.20
2008,12,29,17,59,7.00
2008,12,29,18,00,9.70
2008,12,29,18,01,5.50
2008,12,29,18,02,4.70
2008,12,29,18,03,8.30
2008,12,29,18,04,5.80
2008,12,29,18,05,6.00
2008,12,29,18,06,6.00
2008,12,29,18,07,4.80
2008,12,29,18,08,5.70
2008,12,29,18,09,3.10
2008,12,29,18,10,4.30
2008,12,29,18,11,4.00
2008,12,29,18,12,4.40
2008,12,29,18,13,4.40
2008,12,29,18,14,7.50
2008,12,29,18,15,4.90
2008,12,29,18,16,5.00
2008,12,29,18,17,4.50
2008,12,29,18,18,3.30
2008,12,29,18,19,6.00
2008,12,29,18,20,5.20
2008,12,29,18,21,5.00
2008,12,29,18,22,4.90
2008,12,29,18,23,5.00
2008,12,29,18,24,4.70
2008,12,29,18,25,3.90
2008,12,29,18,26,7.50
2008,12,29,18,27,3.60
2008,12,29,18,28,5.60
2008,12,29,18,29,2.00
2008,12,29,18,30,1.80
2008,12,29,18,31,4.10
2008,12,29,18,32,4.70
2008,12,29,18,33,3.10
2008,12,29,18,34,3.60
2008,12,29,18,35,3.10
2008,12,29,18,36,6.50
2008,12,29,18,37,4.10
2008,12,29,18,38,4.20
2008,12,29,18,39,7.10
2008,12,29,18,40,8.60
2008,12,29,18,41,6.60
2008,12,29,18,42,5.30
2008,12,29,18,43,10.40
2008,12,29,18,44,4.20
2008,12,29,18,45,5.20
2008,12,29,18,46,4.20
2008,12,29,18,47,3.00
2008,12,29,18,48,6.40
2008,12,29,18,49,4.80
2008,12,29,18,50,4.10
2008,12,29,18,51,6.70
2008,12,29,18,52,8.00
2008,12,29,18,53,2.60
2008,12,29,18,54,4.00
2008,12,29,18,55,5.30
2008,12,29,18,56,1.90
2008,12,29,18,57,4.20
2008,12,29,18,58,4.40
2008,12,29,18,59,9.10
2008,12,29,19,00,4.30
2008,12,29,19,01,3.40
2008,12,29,19,02,3.60
2008,12,29,19,03,3.80
2008,12,29,19,04,3.60
2008,12,29,19,05,5.30
2008,12,29,19,06,3.10